Location: Palmerston North
(40.3500°S, 175.6170°E)
Time: 09:40:59
(UTC+13:00)

Cosmos 2219 Rocket - Pass Details

Date: 24 January 2019
Orbit: 829 x 845 km, 71.0° (Epoch: 18 February)

Event Time Altitude Azimuth Distance (km) Brightness Sun altitude
Exits shadow 23:36:26 65° 39° (NE) 930 2.1 -24.9°
Maximum altitude 23:36:53 69° 70° (ENE) 912 2.1 -24.9°
Drops below altitude 10° 23:42:35 10° 152° (SSE) 2,496 5.0 -25.4°
Sets 23:45:04 0° 154° (SSE) 3,439 5.9 -25.7°
